Location: Fontevrault
(47.1823°N, 0.0493°E)
Time: 15:35:36
(UTC+00:00)

Centaur D AC-29 - Pass Details

Date: 16 June 2021
Orbit: 529 x 36308 km, 26.6° (Epoch: 29 July)

Event Time Altitude Azimuth Distance (km) Brightness Sun altitude
Rises 20:08:15 0° 260° (W) 29,197 10.2 -2.2°
Reaches altitude 10° 21:26:24 10° 259° (W) 13,097 8.1 -11.3°
Maximum altitude 21:53:56 26° 215° (SW) 3,919 4.9 -13.9°
Enters shadow 21:59:07 16° 171° (S) 3,048 4.0 -14.3°
